Station: Robe Airport  

  Atmospheric Gas Attenuation - ITU Rec 676-11   ----------------- dB/100km -----------------
Date Time Temp RH % AH g/m3 Dew Point Wind Direction Speed kph Gust kph Barometer mB Rainfall Since 9am 24GHz 47GHz 76GHz 122GHz 134GHz 241GHz
09/05 21:20 12.9 93 10.48 11.8 7 9 1029.7 0 23.6 30.0 49.0 128.7 127.2 438.9
09/05 21:10 12.9 94 10.6 11.9 9 13 1029.8 0 23.9 30.2 49.5 130.2 129.0 445.0
09/05 21:00 13 94 10.66 12.1 9 19 1029.8 0 24.0 30.3 49.7 130.7 129.7 447.5
09/05 20:50 12.9 94 10.6 11.9 6 6 1029.9 0 23.9 30.2 49.5 130.2 129.0 445.1
09/05 20:40 12.8 94 10.53 11.8 7 11 1029.9 0 23.8 30.1 49.3 129.5 128.1 442.1
09/05 20:30 13.1 94 10.73 12.2 9 20 1029.9 0 24.2 30.4 50.0 131.4 130.5 450.5
09/05 20:20 13.3 94 10.86 12.3 6 7 1029.8 0 24.4 30.5 50.4 132.6 132.0 455.9
09/05 20:10 13.3 94 10.86 12.3 9 11 1029.8 0 24.4 30.5 50.4 132.6 132.0 455.9
09/05 20:00 13.3 93 10.75 12.2 9 15 1029.8 0 24.2 30.3 49.9 131.3 130.5 450.3
09/05 19:50 13.4 93 10.81 12.3 9 13 1029.9 0 24.3 30.4 50.1 131.8 131.2 452.8
09/05 19:40 13.4 93 10.81 12.3 11 11 1029.9 0 24.3 30.4 50.1 131.8 131.2 452.8
09/05 19:30 13.4 93 10.81 12.3 7 9 1029.8 0 24.3 30.4 50.1 131.8 131.1 452.8
09/05 19:20 13.4 92 10.7 12.1 6 6 1029.9 0 24.1 30.2 49.7 130.5 129.6 447.2
09/05 19:10 13.4 92 10.7 12.1 6 7 1029.8 0 24.1 30.2 49.7 130.5 129.6 447.2
09/05 19:00 13.3 92 10.63 12 6 9 1029.8 0 23.9 30.1 49.4 129.8 128.7 444.2
09/05 18:50 13.2 91 10.45 11.7 6 7 1029.7 0 23.6 29.8 48.7 127.9 126.3 435.7
09/05 18:40 13.3 91 10.51 11.8 4 4 1029.8 0 23.7 29.9 48.9 128.4 127.0 438.2
09/05 18:30 13 90 10.21 11.4 6 7 1029.7 0 23.1 29.5 47.8 125.4 123.2 424.8
09/05 18:20 13.3 90 10.4 11.7 7 7 1029.8 0 23.4 29.7 48.4 127.2 125.4 432.7
09/05 18:10 13.5 90 10.53 11.9 6 7 1029.7 0 23.7 29.9 48.8 128.3 126.9 438.0
09/05 18:00 13.6 89 10.47 11.8 4 7 1029.6 0 23.6 29.7 48.5 127.5 125.9 434.4
09/05 17:50 13.8 89 10.6 12 6 7 1029.5 0 23.8 29.9 48.9 128.6 127.4 439.8
09/05 17:40 13.8 88 10.49 11.8 9 9 1029.4 0 23.6 29.7 48.5 127.3 125.8 434.2
09/05 17:30 13.9 86 10.31 11.6 9 17 1029.2 0 23.2 29.3 47.6 125.1 123.1 424.7
09/05 17:20 13.9 86 10.31 11.6 7 11 1029.1 0 23.2 29.3 47.6 125.1 123.1 424.6
09/05 17:10 13.8 86 10.25 11.5 9 13 1029 0 23.1 29.3 47.4 124.5 122.4 422.2
09/05 17:00 13.9 87 10.43 11.8 9 13 1029 0 23.5 29.5 48.1 126.4 124.8 430.6
09/05 16:50 13.9 86 10.31 11.7 9 11 1029 0 23.2 29.3 47.6 125.0 123.1 424.6
09/05 16:40 14.1 86 10.44 11.8 11 13 1029 0 23.5 29.5 48.0 126.2 124.6 429.9
09/05 16:30 14.2 85 10.38 11.7 11 17 1029 0 23.4 29.4 47.7 125.4 123.6 426.4
09/05 16:20 14.5 85 10.57 12 11 15 1028.8 0 23.7 29.6 48.3 127.0 125.8 434.1
09/05 16:10 14.4 85 10.51 11.9 13 15 1028.8 0 23.6 29.5 48.1 126.5 125.1 431.7
09/05 16:00 14.6 86 10.76 12.3 11 17 1028.7 0 24.1 29.9 49.1 129.1 128.3 442.9
09/05 15:50 14.8 84 10.64 12.1 15 17 1028.7 0 23.9 29.6 48.5 127.3 126.2 435.8
09/05 15:40 15.2 82 10.64 12.1 11 15 1028.7 0 23.8 29.5 48.2 126.7 125.6 433.6
09/05 15:30 15.4 82 10.77 12.3 13 17 1028.7 0 24.1 29.6 48.6 127.8 127.1 438.8
09/05 15:20 15.5 82 10.84 12.4 15 17 1028.7 0 24.3 29.7 48.9 128.5 127.9 441.7
09/05 15:10 15.2 83 10.77 12.3 13 17 1028.7 0 24.1 29.7 48.8 128.2 127.4 440.0
09/05 15:00 15.3 82 10.71 12.2 13 19 1028.7 0 24.0 29.5 48.4 127.3 126.4 436.5
09/05 14:50 15.8 81 10.9 12.5 15 17 1028.6 0 24.4 29.7 48.9 128.7 128.2 442.9
09/05 14:40 15.4 82 10.77 12.3 13 15 1028.7 0 24.1 29.6 48.6 127.8 127.1 438.8
09/05 14:30 15.7 81 10.84 12.5 13 19 1028.7 0 24.2 29.6 48.8 128.1 127.6 440.6
09/05 14:20 15.7 80 10.7 12.2 13 15 1028.7 0 23.9 29.4 48.2 126.6 125.6 433.7
09/05 14:10 15.4 79 10.38 11.9 11 15 1028.7 0 23.3 28.9 47.0 123.4 121.6 419.8
09/05 14:00 15.6 80 10.64 12.2 11 15 1028.8 0 23.8 29.3 48.0 126.0 124.9 431.4
09/05 13:50 15.6 80 10.64 12.1 7 11 1028.8 0 23.8 29.3 48.0 126.0 124.9 431.4
09/05 13:40 15.5 79 10.44 12 13 15 1028.9 0 23.4 29.0 47.2 124.0 122.3 422.2
09/05 13:30 15.5 81 10.71 12.3 11 17 1028.9 0 24.0 29.5 48.3 127.0 126.1 435.4
09/05 13:20 15.6 84 11.17 12.9 9 13 1029 0 25.0 30.3 50.3 132.1 132.4 457.6
09/05 13:10 15.3 83 10.84 12.4 17 19 1029.1 0 24.3 29.8 49.0 128.9 128.3 443.0
09/05 13:00 15.6 82 10.9 12.5 15 22 1029.1 0 24.4 29.8 49.1 129.0 128.6 444.2
09/05 12:50 15.9 81 10.97 12.6 17 19 1029.2 0 24.5 29.8 49.2 129.4 129.1 446.0
09/05 12:40 15.8 82 11.04 12.7 9 11 1029.3 0 24.7 30.0 49.6 130.3 130.3 450.1
09/05 12:30 15.5 83 10.97 12.6 13 19 1029.5 0 24.5 30.0 49.5 130.1 129.8 448.4
09/05 12:20 15.4 85 11.17 12.9 17 19 1029.5 0 25.0 30.3 50.4 132.5 132.8 458.9
09/05 12:10 16.1 82 11.24 13 15 19 1029.6 0 25.1 30.2 50.3 132.2 132.6 458.3
09/05 12:00 15.7 85 11.37 13.2 11 20 1029.7 0 25.4 30.6 51.1 134.4 135.2 467.2
09/05 11:50 15.3 84 10.97 12.6 15 17 1029.9 0 24.5 30.0 49.6 130.5 130.2 449.7
09/05 11:40 15.7 86 11.51 13.3 11 15 1030 0 25.7 30.9 51.7 136.0 137.2 474.3
09/05 11:30 15 86 11.03 12.7 11 17 1030.1 0 24.7 30.3 50.1 131.7 131.6 454.5
09/05 11:20 15 87 11.16 12.8 9 13 1030.2 0 25.0 30.5 50.7 133.2 133.5 461.1
09/05 11:10 15 87 11.16 12.8 9 11 1030.3 0 25.0 30.5 50.7 133.2 133.5 461.1
09/05 11:00 15.5 86 11.37 13.2 11 19 1030.3 0 25.4 30.7 51.3 134.8 135.6 468.6
09/05 10:50 14.9 87 11.09 12.7 13 17 1030.4 0 24.8 30.4 50.4 132.6 132.7 458.2
09/05 10:40 14.6 88 11.01 12.6 11 15 1030.3 0 24.7 30.4 50.3 132.1 132.0 455.9
09/05 10:30 14.8 88 11.15 12.8 13 19 1030.3 0 25.0 30.6 50.8 133.4 133.7 461.8
09/05 10:20 15.1 88 11.35 13.1 9 15 1030.2 0 25.4 30.8 51.4 135.2 136.0 470.0
09/05 10:10 14.9 85 10.83 12.5 17 19 1030.3 0 24.3 30.0 49.3 129.6 128.9 445.2
09/05 10:00 15.4 88 11.56 13.4 15 20 1030.2 0 25.8 31.1 52.2 137.2 138.5 478.7
09/05 09:50 15.3 91 11.88 13.8 15 19 1030.2 0 26.5 31.7 53.6 141.1 143.4 495.6
09/05 09:40 14.2 89 10.87 12.5 11 15 1030.2 0 24.4 30.3 49.9 131.2 130.7 451.2
09/05 09:30 15 92 11.8 13.7 15 19 1030.2 0 26.3 31.6 53.5 140.7 142.7 493.5
09/05 09:20 14.7 92 11.58 13.5 11 17 1030.2 0 25.9 31.3 52.7 138.7 140.1 484.1
09/05 09:10 14.2 92 11.23 13 13 17 1030.3 0 25.2 30.9 51.5 135.4 135.9 469.5
09/05 09:00 14.3 94 11.55 13.3 11 17 1030.2 0 25.8 31.4 52.9 139.0 140.4 485.1
09/05 08:50 14.3 95 11.67 13.5 9 11 1030.3 2.2 26.1 31.7 53.4 140.5 142.2 491.3
09/05 08:40 14.1 95 11.53 13.3 15 17 1030.3 2.2 25.8 31.5 52.9 139.2 140.5 485.4
09/05 08:30 14.2 96 11.72 13.6 11 15 1030.2 2.2 26.2 31.8 53.7 141.3 143.1 494.5
09/05 08:20 14 96 11.58 13.3 9 13 1030.1 2.2 25.9 31.6 53.2 139.9 141.4 488.5
09/05 08:10 13.7 95 11.25 13 4 6 1030 2.2 25.2 31.1 51.9 136.5 137.1 473.4
09/05 08:00 13.2 96 11.02 12.6 6 9 1029.9 2.2 24.8 30.9 51.2 134.6 134.6 464.7
09/05 07:50 13.2 95 10.91 12.5 7 7 1029.7 2.2 24.5 30.7 50.7 133.3 132.9 459.0
09/05 07:40 13.6 95 11.18 12.9 7 9 1029.7 2.2 25.1 31.0 51.6 135.8 136.2 470.4
09/05 07:30 13.5 96 11.23 12.9 7 9 1029.6 2.2 25.2 31.1 51.9 136.6 137.1 473.5
09/05 07:20 13.5 95 11.11 12.8 7 9 1029.6 2.2 25.0 30.9 51.4 135.1 135.3 467.4
09/05 07:10 13.4 95 11.04 12.7 9 11 1029.6 2.2 24.8 30.8 51.2 134.5 134.5 464.4
09/05 07:00 13.4 96 11.16 12.8 9 15 1029.5 2 25.1 31.0 51.7 135.9 136.2 470.5
09/05 06:50 13.2 95 10.91 12.4 9 11 1029.4 1.8 24.5 30.7 50.7 133.3 132.9 458.9
09/05 06:40 13.4 95 11.04 12.6 9 11 1029.4 1.8 24.8 30.8 51.1 134.5 134.5 464.3
09/05 06:30 13.4 96 11.16 12.8 7 13 1029.3 1.6 25.1 31.0 51.7 135.9 136.2 470.4
09/05 06:20 13.1 95 10.84 12.3 6 6 1029.3 1.4 24.4 30.6 50.4 132.6 132.1 455.9
09/05 06:10 13.2 95 10.91 12.4 6 7 1029.1 1.4 24.5 30.6 50.7 133.2 132.9 458.8
09/05 06:00 13.2 95 10.91 12.4 7 13 1029.2 1.4 24.5 30.6 50.7 133.2 132.9 458.8
09/05 05:50 13.1 95 10.84 12.3 6 6 1029.1 1.4 24.4 30.6 50.4 132.6 132.0 455.8
09/05 05:40 13.1 95 10.84 12.3 7 9 1029.1 1.4 24.4 30.6 50.4 132.6 132.0 455.8
09/05 05:30 13.1 95 10.84 12.3 6 7 1029 1.4 24.4 30.5 50.4 132.6 132.0 455.8
09/05 05:20 13.1 95 10.84 12.3 4 4 1029 1.4 24.4 30.5 50.4 132.6 132.0 455.8
09/05 05:10 13.1 95 10.84 12.3 6 6 1028.9 1.2 24.4 30.5 50.4 132.5 132.0 455.7
09/05 05:00 13.2 94 10.79 12.3 9 17 1028.8 1 24.3 30.4 50.1 131.8 131.1 452.6
09/05 04:50 13.5 94 11 12.5 17 19 1028.8 0.8 24.7 30.7 50.9 133.7 133.6 461.5

Last Refresh: 09-May-2026 21:31:58

Bureau of Meteorology